DW5923 Weather Reports


time (UTC)temp
C
wind
direction
speed
KPH
gust
KPH
rain 1hr
cm
rain 24hr
cm
rain mn
cm
humidity
%
barometer
mb
20260507040007 11 292 3.2 11.3 0.00 2.84 0.33 83 1010.9
20260507034505 11 325 11.3 24.1 0.00 2.84 0.33 82 1011.0
20260507033004 10 274 9.7 17.7 0.00 2.84 0.33 83 1011.0
20260507031503 11 344 12.9 24.1 0.00 2.84 0.33 84 1011.0
20260507030003 11 322 9.7 20.9 0.00 2.84 0.33 84 1010.9
20260507024508 10 336 8.0 24.1 0.03 2.84 0.33 86 1011.0
20260507023100 10 317 11.3 24.1 0.20 2.84 0.33 86 1011.1
20260507021603 10 302 11.3 20.9 0.28 2.84 0.33 87 1011.1
20260507020112 10 336 12.9 24.1 0.28 2.84 0.33 87 1011.1
20260507014556 10 296 11.3 25.7 0.25 2.84 0.30 86 1010.9
20260507013056 11 300 8.0 17.7 0.10 2.69 0.13 84 1010.8
20260507011550 11 342 6.4 17.7 0.03 2.62 0.05 84 1010.5
20260507010053 10 271 8.0 17.7 0.03 2.62 0.05 85 1010.3
20260507004559 11 313 8.0 22.5 0.05 2.62 0.05 85 1010.5
20260507003049 11 291 17.7 29.0 0.03 2.59 0.03 83 1010.6
20260507001546 11 307 11.3 22.5 0.03 2.59 0.03 82 1010.6
20260507000042 11 326 12.9 24.1 0.03 2.59 0.03 84 1010.6
20260506234544 11 317 11.3 32.2 0.00 2.67 0.00 84 1010.8
20260506233039 11 308 17.7 32.2 0.00 2.67 0.00 83 1010.6
20260506231535 11 337 14.5 24.1 0.00 2.67 0.00 82 1010.6
20260506230044 11 331 9.7 30.6 0.00 2.67 0.00 82 1010.4
20260506224534 11 295 14.5 37.0 0.00 3.07 0.00 83 1010.4
20260506223040 11 314 14.5 27.4 0.00 3.07 0.00 83 1010.5
20260506221526 11 292 12.9 27.4 0.00 3.07 0.00 83 1010.4
20260506220025 11 319 11.3 27.4 0.00 3.07 0.00 83 1010.4
20260506214536 11 327 9.7 17.7 0.00 3.30 3.07 83 1010.2
20260506213023 11 290 8.0 16.1 0.00 3.30 3.07 84 1010.2
20260506211521 11 305 9.7 22.5 0.00 3.30 3.07 85 1010.1
20260506210026 11 303 14.5 24.1 0.00 3.30 3.07 84 1010.1
20260506204520 11 276 4.8 19.3 0.00 3.38 3.07 82 1010.1
20260506203020 11 283 11.3 19.3 0.00 3.38 3.07 81 1009.9
20260506201518 12 327 6.4 22.5 0.00 3.38 3.07 79 1009.8
20260506200018 11 269 9.7 20.9 0.00 3.38 3.07 81 1009.5
20260506194516 11 292 9.7 22.5 0.00 3.38 3.07 86 1009.2
20260506193015 11 291 9.7 25.7 0.00 3.38 3.07 85 1009.9
20260506191515 12 46 12.9 30.6 0.00 3.38 3.07 81 1010.2
20260506190015 12 285 16.1 27.4 0.00 3.38 3.07 82 1009.8
20260506184522 12 334 11.3 22.5 0.00 3.38 3.07 83 1008.7
20260506183021 12 337 3.2 16.1 0.00 3.38 3.07 82 1008.3
20260506181514 12 297 6.4 20.9 0.00 3.38 3.07 82 1008.0
20260506180010 12 300 12.9 20.9 0.00 3.38 3.07 83 1007.8
20260506174509 12 308 6.4 25.7 0.00 3.38 3.07 84 1007.9
20260506173008 12 340 6.4 17.7 0.00 3.38 3.07 84 1007.8
20260506171508 12 302 11.3 22.5 0.00 3.38 3.07 83 1007.6
20260506170008 12 9 8.0 22.5 0.03 3.38 3.07 83 1007.5
20260506164509 12 342 16.1 29.0 0.05 3.38 3.07 83 1007.1
20260506163008 12 271 16.1 33.8 0.18 3.38 3.07 83 1006.7
20260506161505 11 291 14.5 30.6 0.41 3.38 3.07 86 1006.3
20260506160009 11 305 9.7 24.1 0.99 3.35 3.05 88 1006.5
20260506154505 11 275 11.3 24.1 1.24 3.33 3.02 88 1006.7
20260506153010 11 279 8.0 16.1 1.42 3.20 2.87 88 1007.4
20260506151503 11 337 16.1 33.8 1.27 2.97 2.67 87 1006.9
20260506144559 12 342 19.3 35.4 0.46 2.11 1.78 86 1005.1
20260506143053 13 315 9.7 22.5 0.15 1.80 1.45 86 1006.5
20260506141552 14 327 9.7 17.7 0.08 1.73 1.40 85 1006.2
20260506140052 16 45 6.4 20.9 0.03 1.68 1.35 79 1006.6
20260506134549 16 224 9.7 19.3 0.00 1.68 1.32 80 1006.3
20260506133048 16 130 4.8 25.7 0.03 1.68 1.32 81 1006.7
20260506131552 15 236 4.8 17.7 0.10 1.68 1.32 82 1006.8
20260506130045 15 231 12.9 20.9 0.13 1.68 1.32 82 1006.9
20260506124544 15 209 9.7 24.1 0.15 1.68 1.32 83 1007.0
20260506123043 14 207 11.3 27.4 0.13 1.65 1.30 84 1007.3
20260506121543 15 234 11.3 29.0 0.05 1.57 1.22 80 1007.5
20260506120043 15 168 17.7 33.8 0.03 1.55 1.19 77 1007.1
20260506114541 15 227 17.7 29.0 0.00 1.55 1.17 79 1006.8
20260506113042 15 233 9.7 22.5 0.00 1.55 1.17 78 1006.8
20260506111536 15 209 12.9 22.5 0.00 1.55 1.17 78 1007.0
20260506110035 15 218 14.5 22.5 0.00 1.55 1.17 80 1007.2
20260506104535 15 211 11.3 25.7 0.00 1.55 1.17 82 1007.4
20260506103029 14 40 1.6 11.3 0.00 1.55 1.17 87 1007.5
20260506101528 13 124 3.2 12.9 0.05 1.55 1.17 87 1007.7
20260506100027 13 333 3.2 8.0 0.18 1.55 1.17 88 1007.9
20260506094527 13 256 1.6 6.4 0.33 1.55 1.17 88 1008.0
20260506093025 12 75 4.8 12.9 0.41 1.55 1.17 87 1007.8
20260506091525 12 181 3.2 17.7 0.36 1.50 1.12 87 1007.4
20260506090026 13 226 3.2 24.1 0.23 1.37 0.99 87 1007.5
20260506084523 13 220 11.3 22.5 0.08 1.35 0.84 85 1007.4
20260506083023 13 217 11.3 20.9 0.03 1.27 0.76 85 1007.0
20260506081521 13 205 12.9 22.5 0.03 1.27 0.76 86 1007.1
20260506073018 13 202 11.3 27.4 0.03 1.60 0.71 86 1007.5
20260506071514 13 206 11.3 25.7 0.03 1.60 0.71 86 1007.8
20260506061509 13 227 6.4 12.9 0.05 1.60 0.71 85 1007.7
20260506050106 13 232 11.3 24.1 0.10 1.52 0.64 88 1008.3
20260506044556 13 214 11.3 22.5 0.10 1.52 0.64 88 1008.2
20260506043057 13 200 11.3 19.3 0.05 1.45 0.58 89 1008.4
20260506041553 13 161 6.4 16.1 0.00 1.42 0.53 89 1008.4